This is the latest recevied weather packets stored in our database for station/object K5FEP. If no packets are shown the sender has not sent any weather packets the latest 10 day(s).
| Time | Temp. | Humidity | Pressure | Rain* | Wind** | Luminosity | Snow |
|---|---|---|---|---|---|---|---|
| 1777998138 | 25.56° C | 37% | 1014.9 hPa | 0 mm | - | 954 W/m² | - |
| 1777997835 | 25° C | 36% | 1015 hPa | 0 mm | - | 961 W/m² | - |
| 1777997533 | 25.56° C | 36% | 1014.9 hPa | 0 mm | - | 941 W/m² | - |
| 1777997230 | 25° C | 39% | 1015 hPa | 0 mm | - | 921 W/m² | - |
| 1777996927 | 25.56° C | 38% | 1015 hPa | 0 mm | - | 873 W/m² | - |
| 1777996623 | 25.56° C | 39% | 1015 hPa | 0 mm | - | 887 W/m² | - |
| 1777996320 | 25.56° C | 38% | 1015 hPa | 0 mm | - | 925 W/m² | - |
| 1777996016 | 25° C | 38% | 1015.1 hPa | 0 mm | - | 934 W/m² | - |
| 1777995712 | 25° C | 39% | 1015.1 hPa | 0 mm | - | 916 W/m² | - |
| 1777995409 | 25° C | 38% | 1015.2 hPa | 0 mm | - | 907 W/m² | - |
| 1777995106 | 24.44° C | 42% | 1015 hPa | 0 mm | - | 900 W/m² | - |
| 1777994803 | 23.89° C | 40% | 1015.1 hPa | 0 mm | - | 887 W/m² | - |
| 1777994499 | 24.44° C | 41% | 1015.1 hPa | 0 mm | - | 877 W/m² | - |
| 1777994194 | 23.89° C | 44% | 1015.2 hPa | 0 mm | - | 864 W/m² | - |
| 1777993892 | 23.89° C | 42% | 1015.4 hPa | 0 mm | - | 853 W/m² | - |
| 1777993588 | 24.44° C | 43% | 1015.4 hPa | 0 mm | - | 839 W/m² | - |
| 1777993285 | 23.89° C | 42% | 1015.3 hPa | 0 mm | - | 828 W/m² | - |
| 1777992980 | 23.33° C | 44% | 1015.6 hPa | 0 mm | - | 814 W/m² | - |
| 1777992679 | 23.33° C | 47% | 1015.4 hPa | 0 mm | - | 798 W/m² | - |
| 1777992376 | 22.78° C | 45% | 1015.7 hPa | 0 mm | - | 786 W/m² | - |
| 1777992074 | 22.78° C | 44% | 1015.6 hPa | 0 mm | - | 770 W/m² | - |
| 1777991772 | 22.78° C | 45% | 1015.6 hPa | 0 mm | - | 756 W/m² | - |
| 1777991468 | 22.78° C | 51% | 1015.4 hPa | 0 mm | - | 741 W/m² | - |
| 1777991165 | 22.22° C | 45% | 1015.2 hPa | 0 mm | - | 725 W/m² | - |
| 1777990863 | 22.22° C | 46% | 1015.2 hPa | 0 mm | - | 710 W/m² | - |
* Rain latest hour (hover to see other rain measurements)
** Current wind speed in m/s (hover to see current wind gust speed)